This is the latest recevied weather packets stored in our database for station/object K8GLX. If no packets are shown the sender has not sent any weather packets the latest 10 day(s).
| Time | Temp. | Humidity | Pressure | Rain* | Wind** | Luminosity | Snow |
|---|---|---|---|---|---|---|---|
| 1777930029 | 23.33° C | 43% | 1002.9 hPa | 0 mm | - | 424 W/m² | - |
| 1777929735 | 23.89° C | 42% | 1003 hPa | 0 mm | - | 208 W/m² | - |
| 1777929429 | 24.44° C | 42% | 1003.2 hPa | 0 mm | - | 250 W/m² | - |
| 1777929135 | 23.33° C | 42% | 1003.3 hPa | 0 mm | - | 453 W/m² | - |
| 1777928829 | 23.89° C | 41% | 1003.2 hPa | 0 mm | - | 458 W/m² | - |
| 1777928534 | 23.89° C | 40% | 1003.6 hPa | 0 mm | - | 525 W/m² | - |
| 1777928229 | 23.33° C | 40% | 1003.2 hPa | 0 mm | - | 456 W/m² | - |
| 1777927935 | 23.33° C | 39% | 1003.4 hPa | 0 mm | - | 454 W/m² | - |
| 1777927629 | 23.89° C | 39% | 1003.5 hPa | 0 mm | - | 474 W/m² | - |
| 1777927334 | 23.89° C | 38% | 1003.4 hPa | 0 mm | - | 493 W/m² | - |
| 1777927028 | 23.33° C | 38% | 1003.5 hPa | 0 mm | - | 507 W/m² | - |
| 1777926734 | 23.33° C | 37% | 1003.7 hPa | 0 mm | - | 522 W/m² | - |
| 1777926429 | 23.89° C | 37% | 1003.6 hPa | 0 mm | - | 527 W/m² | - |
| 1777926261 | 23.89° C | 37% | 1003.3 hPa | 0 mm | - | 542 W/m² | - |
| 1777925829 | 23.33° C | 39% | 1003.5 hPa | 0 mm | - | 564 W/m² | - |
| 1777925535 | 23.33° C | 41% | 1003.7 hPa | 0 mm | - | 567 W/m² | - |
| 1777925229 | 23.33° C | 40% | 1003.6 hPa | 0 mm | - | 587 W/m² | - |
| 1777924935 | 23.33° C | 41% | 1003.9 hPa | 0 mm | - | 603 W/m² | - |
| 1777924628 | 22.78° C | 42% | 1003.6 hPa | 0 mm | - | 598 W/m² | - |
| 1777924335 | 22.78° C | 42% | 1003.8 hPa | 0 mm | - | 615 W/m² | - |
| 1777924029 | 22.78° C | 41% | 1004.1 hPa | 0 mm | - | 617 W/m² | - |
| 1777923735 | 22.78° C | 42% | 1004 hPa | 0 mm | - | 635 W/m² | - |
| 1777923429 | 22.78° C | 42% | 1004.1 hPa | 0 mm | - | 643 W/m² | - |
| 1777923135 | 22.78° C | 40% | 1004.1 hPa | 0 mm | - | 661 W/m² | - |
| 1777922829 | 23.33° C | 41% | 1004.4 hPa | 0 mm | - | 678 W/m² | - |
* Rain latest hour (hover to see other rain measurements)
** Current wind speed in m/s (hover to see current wind gust speed)